Regional Weather Roundup
Issued by NWS

Home | Current Version | Previous Version | Text Only | Print | Product List | Glossary Off
Versions: 1 2 3 4 5 6 7 8 9 10 11 12 13 14 15 16 17 18 19 20 21 22 23 24 25 26 27 28 29 30 31 32 33 34 35 36 37 38 39 40 41 42 43 44 45 46 47 48 49 50

000
ASUS43 KMKX 220700
RWRWI

WISCONSIN REGIONAL WEATHER ROUNDUP
NATIONAL WEATHER SERVICE MILWAUKEE/SULLIVAN WI
200 AM CDT FRI SEP 22 2017

NOTE: "FAIR" INDICATES FEW OR NO CLOUDS BELOW 12,000 FEET WITH NO
SIGNIFICANT WEATHER AND/OR OBSTRUCTIONS TO VISIBILITY.

WIZ001-002-006>008-014>016-023>028-220800-
NORTHWEST WISCONSIN

CITY           SKY/WX    TMP DP  RH WIND       PRES   REMARKS
SUPERIOR ARPT  CLOUDY    59  58  97 NE5       29.87S
ASHLAND        PTCLDY    57  55  93 S5        29.88F
HAYWARD        PTCLDY    70  64  81 S7        29.91S
SIREN          CLOUDY    73  64  72 S12       29.87S
CUMBERLAND     MOCLDY    68  63  83 SE6       29.91R
RICE LAKE      CLEAR     69  64  83 SE6       29.92R
CHETEK         PTCLDY    69  65  88 SE3       29.91F
LADYSMITH      MOCLDY    72  65  78 SE5       29.95F
EAU CLAIRE     MOCLDY    74  66  76 S12       29.91S
MENOMONIE      CLEAR     70  65  85 SE6       29.91R
NEW RICHMOND   PTCLDY    73  64  73 S12G17    29.87S
OSCEOLA        CLEAR     74  66  75 SE10G18   29.88S
$$

WIZ003>005-009-010-017-018-220800-
NORTH CENTRAL WISCONSIN

CITY           SKY/WX    TMP DP  RH WIND       PRES   REMARKS
MANITOWISH WTR CLEAR     66  66 100 SE6       29.97S
ARBOR VITAE    CLEAR     67  65  93 SE5       29.98F
WOODRUFF       CLEAR     67  65  93 SE5       29.98F
RHINELANDER    PTCLDY    68  66  93 SE5       30.00F
EAGLE RIVER    CLEAR     66  66  97 SE3       30.00F
LAND O LAKES   PTCLDY    67  65  93 S5        30.02S
PHILLIPS       CLOUDY    69  66  92 S7        29.96S
TOMAHAWK       PTCLDY    67  64  89 CALM      29.99F
MEDFORD        MOCLDY    67  64  89 S6        29.98S
MERRILL        PTCLDY    67  66  99 CALM      30.00S
$$

WIZ029-030-035-036-043>047-220800-
CENTRAL WISCONSIN

CITY           SKY/WX    TMP DP  RH WIND       PRES   REMARKS
WAUSAU         CLEAR     66  65  96 SE5       29.98S
MOSINEE        CLEAR     66  64  94 SE5       30.01R
MARSHFIELD     CLEAR     67  63  87 S7        29.98S
STEVENS POINT  CLEAR     66  65  99 CALM      30.00S
WAUPACA        CLEAR     66  65  97 CALM      30.00S FOG
WAUTOMA        CLEAR     64  63  96 CALM      30.00S
WISC RAPIDS    CLEAR     70  66  87 S5        29.99S
CAMP DOUGLAS   NOT AVBL
$$

WIZ011>013-019>022-031-037>040-048>050-220800-
NORTHEAST WISCONSIN

CITY           SKY/WX    TMP DP  RH WIND       PRES   REMARKS
ANTIGO         CLEAR     65  65 100 S7        30.02S FOG
SHAWANO        CLEAR     67  65  94 CALM      30.00S FOG
OCONTO         MOCLDY    60  60  99 CALM      30.00S VSB 1/2
STURGEON BAY   CLEAR     69  67  93 S9        30.03S
GREEN BAY      CLEAR     66  66 100 S3        30.00S
MANITOWOC      CLEAR     66  66 100 CALM      30.02S FOG
APPLETON       CLEAR     68  64  88 SE6       29.99S
CLINTONVILLE   FOG       64  63  94 CALM      30.00S VSB 1/2
OSHKOSH        CLEAR     68  65  90 S7        30.00R
$$

WIZ032>034-041-042-053>061-220800-
SOUTHWEST WISCONSIN

CITY           SKY/WX    TMP DP  RH WIND       PRES   REMARKS
LA CROSSE      NOT AVBL
SPARTA         CLEAR     75  67  76 S6        29.96R
VIROQUA        CLEAR     71  69  93 CALM      29.98S
BOSCOBEL       CLEAR     69  66  90 CALM      29.97S
PRAIRIE DU CHI CLEAR     78  66  65 SE8       29.95R HX  80
PLATTEVILLE    CLEAR     72  70  93 SE7       30.00S
$$

WIZ056-057-062-063-064-067-068-220800-
SOUTH CENTRAL WISCONSIN

CITY           SKY/WX    TMP DP  RH WIND       PRES   REMARKS
REEDSBURG      CLEAR     74  68  80 S10       29.98S
BARABOO/DELLS  CLEAR     73  64  73 S7        29.99S
LONE ROCK      CLEAR     70  68  93 E7        29.98S
MINERAL POINT  CLEAR     72  70  94 SE7       30.01S
MADISON        CLEAR     73  66  78 S6        30.00S
MIDDLETON      CLEAR     66  66 100 CALM      30.02R
WATERTOWN      CLEAR     69  69 100 CALM      30.01S
MONROE         CLEAR     70  66  88 S6        30.02R
JANESVILLE     PTCLDY    70  70 100 SE3       30.01R
$$

WIZ051-052-058>065-066-070>072-220800-
SOUTHEAST WISCONSIN

CITY           SKY/WX    TMP DP  RH WIND       PRES   REMARKS
MILWAUKEE      CLEAR     72  69  90 CALM      30.02R FOG
WAUKESHA       CLEAR     68  64  88 CALM      30.04R
MILWAUKEE/TIMM CLEAR     66  63  88 CALM      30.03S FOG
RACINE         CLEAR     73  71  93 S5        30.04R FOG
BURLINGTON     CLOUDY    66  66 100 CALM      30.03R FOG
KENOSHA        CLOUDY    73  69  87 S3        30.03R
FOND DU LAC    CLEAR     70  65  84 S5        30.01R
SHEBOYGAN      FOG       64  64 100 CALM      30.02S VSB 1/4
WEST BEND        N/A     63  63 100 CALM      30.03S FOG
JUNEAU         CLEAR     70  67  90 SE5       30.03R
$$

LSZ147-162-220800-
LAKE SUPERIOR

STATION/POSITION TIME  TEMP    WIND        PRES    WAVE
                       AIR SEA DIR/SP/G            HT/PER
                 (UTC) (F)     (DEG/KT/KT) (MB)    (FT/S)
W MID LAKE BUOY  0550   59 55  130/  8/  8 1012.5F   1/ 4
DEVILS ISLAND    0600   60      40/  6/  7 1011.9F
SAXON HARBOR     0630          190/  7/ 16 1010.8F
$$

LMZ867-665-643>646-220800-
LAKE MICHIGAN

STATION/POSITION TIME  TEMP    WIND        PRES    WAVE
                       AIR SEA DIR/SP/G            HT/PER
                 (UTC) (F)     (DEG/KT/KT) (MB)    (FT/S)
S GREEN BAY BUOY 0630   67 67   90/  2/  4 1015.8S
N MID LAKE BUOY  0550   67 66  160/  4/  4 1017.1R   1
NORTHPORT PIER   0640   67     160/  5/  6 1015.9F
KEWAUNEE LAKESHO 0630   62      30/  2/  4 1015.8R
SHEBOYGAN LAKESH 0600   68     180/  5/  5 1016.0S
PORT WASHINGTON  0640   70     250/  2/  3 1017.3R
ATWATER BUOY     0509   69 68  140/  2/  4 1016.5
MILWAUKEE LAKESH 0630   69      CALM  /  1   N/A
S MID LAKE BUOY  0550   72 69  110/ 10/ 12 1016.5S   1/ 3
KENOSHA   LAKESH 0600   72     180/  5/  6 1016.3
$$

TC  - TEMPERATURE IN CELSIUS
VSB - VISIBILITY IN STATUTE MILES
WCI - WIND CHILL INDEX
HX  - HEAT INDEX




USA.gov is the U.S. government's official web portal to all federal, state and local government web resources and services.